This demonstration page uses our WeatherBlox Daily Observations layout. Learn more.

Left ArrowRight Arrow

Hourly Observations for January 31, 2022

Temp ( °F °C ) Dew Point ( °F °C ) Humidity (%) Winds ( mph kmh ) Pressure ( in mb ) Visibility ( mi km ) Precip ( " mm )
12:52 am 00:52 Cloudy 36 2.2 23 -5 59 59 SSE 15 24 29.94 1014 10 16 0.00 0.00
1:52 am 01:52 Mostly Cloudy 34 1.1 23 -5 64 64 S 8 13 29.93 1014 10 16 0.00 0.00
2:52 am 02:52 Mostly Cloudy 34 1.1 23 -5 64 64 SSE 8 13 29.92 1013 10 16 0.00 0.00
3:52 am 03:52 Cloudy 33 0.6 23 -5 66 66 SSE 9 15 29.89 1012 10 16 0.00 0.00
4:52 am 04:52 Cloudy 30 -1.1 22 -5.6 72 72 SSE 10 17 29.89 1012 10 16 0.00 0.00
5:52 am 05:52 Mostly Cloudy 29 -1.7 22 -5.6 75 75 SSE 9 15 29.89 1012 10 16 0.00 0.00
6:52 am 06:52 Mostly Cloudy 28 -2.2 22 -5.6 78 78 SSE 9 15 29.88 1012 10 16 0.00 0.00
7:52 am 07:52 Mostly Cloudy 27 -2.8 21 -6.1 78 78 SE 9 15 29.88 1012 10 16 0.00 0.00
8:52 am 08:52 Mostly Cloudy 31 -0.6 23 -5 72 72 SSE 7 11 29.87 1011 10 16 0.00 0.00
9:52 am 09:52 Mostly Cloudy 34 1.1 22 -5.6 61 61 SSE 10 17 29.85 1011 10 16 0.00 0.00
10:52 am 10:52 Mostly Cloudy 38 3.3 23 -5 55 55 SSE 8 13 29.83 1010 10 16 0.00 0.00
11:52 am 11:52 Mostly Cloudy 43 6.1 24 -4.4 47 47 SSE 9 15 29.78 1009 10 16 0.00 0.00
12:52 pm 12:52 Mostly Cloudy 47 8.3 25 -3.9 42 42 S 13 20 29.75 1007 10 16 0.00 0.00
1:52 pm 13:52 Mostly Cloudy 50 10 26 -3.3 39 39 SSE 12 19 29.70 1006 10 16 0.00 0.00
2:52 pm 14:52 Mostly Cloudy 51 10.6 27 -2.8 39 39 SSE 17 28 29.67 1005 10 16 0.00 0.00
3:52 pm 15:52 Cloudy 53 11.7 26 -3.3 35 35 SSE 15 24 29.65 1004 10 16 0.00 0.00
4:52 pm 16:52 Mostly Cloudy 49 9.4 27 -2.8 43 43 SSE 10 17 29.64 1004 10 16 0.00 0.00
5:52 pm 17:52 Cloudy 45 7.2 26 -3.3 48 48 SSE 12 19 29.64 1004 10 16 0.00 0.00
6:52 pm 18:52 Cloudy 43 6.1 27 -2.8 53 53 SSE 13 20 29.65 1004 10 16 0.00 0.00
7:52 pm 19:52 Cloudy 42 5.6 24 -4.4 49 49 SSE 9 15 29.67 1005 10 16 0.00 0.00
8:52 pm 20:52 Mostly Cloudy 42 5.6 26 -3.3 53 53 SSE 12 19 29.65 1004 10 16 0.00 0.00
9:52 pm 21:52 Mostly Cloudy 41 5 24 -4.4 51 51 SSE 8 13 29.66 1004 10 16 0.00 0.00
10:52 pm 22:52 Partly Cloudy 44 6.7 24 -4.4 45 45 S 3 6 29.69 1006 10 16 0.00 0.00
11:52 pm 23:52 Mostly Clear 42 5.6 20 -6.7 41 41 Calm 29.73 1007 10 16 0.00 0.00

Powered by AerisWeather